This demonstration page uses our WeatherBlox Daily Observations layout. Learn more.

Left ArrowRight Arrow

39.51506, -84.39828

Hourly Observations for May 17, 2018

Temp ( °F °C ) Dew Point ( °F °C ) Humidity (%) Winds ( mph kmh ) Pressure ( in mb ) Visibility ( mi km ) Precip ( " mm )
12:15 am 00:15 Partly Cloudy 67 19.4 64 18 92 92 N 3 6 29.94 1014 7 11 N/A
12:35 am 00:35 Partly Cloudy 67 19.4 64 17.8 91 91 N 6 9 29.94 1014 7 11 N/A
12:55 am 00:55 Partly Cloudy 66 18.8 63 17.4 92 92 NNE 5 7 29.94 1014 10 16 N/A
1:15 am 01:15 Clear 66 18.8 62 16.9 89 89 N 5 7 29.94 1014 10 16 N/A
1:35 am 01:35 Clear 65 18.5 62 16.6 89 89 N 3 6 29.94 1014 10 16 N/A
1:55 am 01:55 Clear 64 17.8 61 16.2 90 90 N 3 6 29.94 1014 10 16 N/A
2:15 am 02:15 Clear 64 17.6 61 15.9 90 90 N 5 7 29.91 1013 10 16 N/A
2:35 am 02:35 Clear 64 17.6 60 15.4 87 87 N 6 9 29.91 1013 10 16 N/A
2:55 am 02:55 Clear 63 17.3 59 15 86 86 N 5 7 29.91 1013 10 16 N/A
3:15 am 03:15 Clear 63 17.2 59 15 87 87 N 5 7 29.91 1013 10 16 N/A
3:35 am 03:35 Partly Cloudy 62 16.8 59 14.8 88 88 N 3 6 29.91 1013 10 16 N/A
3:55 am 03:55 Cloudy 62 16.8 59 14.9 89 89 N 3 6 29.91 1013 10 16 N/A
4:15 am 04:15 Partly Cloudy 62 16.7 59 14.8 89 89 N N/A 29.91 1013 10 16 N/A
4:35 am 04:35 Mostly Cloudy 61 16.2 58 14.6 90 90 N 3 6 29.91 1013 7 11 N/A
4:55 am 04:55 Clear 61 15.9 58 14.5 91 91 N 8 13 29.91 1013 10 16 N/A
5:15 am 05:15 Clear 60 15.8 58 14.3 91 91 N 6 9 29.91 1013 10 16 N/A
5:35 am 05:35 Clear 60 15.8 58 14.2 90 90 N 5 7 29.94 1014 10 16 N/A
5:55 am 05:55 Clear 60 15.7 57 14 90 90 N 3 6 29.94 1014 10 16 N/A
6:15 am 06:15 Clear 60 15.3 57 13.9 91 91 N 3 6 29.94 1014 10 16 N/A
6:35 am 06:35 Sunny 59 15.1 57 13.9 93 93 N 3 6 29.94 1014 10 16 N/A
6:55 am 06:55 Sunny 60 15.5 57 14 91 91 N 3 6 29.94 1014 10 16 N/A
7:15 am 07:15 Sunny 61 16.1 58 14.3 89 89 N 3 6 29.94 1014 10 16 N/A
7:35 am 07:35 Sunny 63 17.1 58 14.4 84 84 N N/A 29.94 1014 10 16 N/A
7:55 am 07:55 Sunny 63 17.3 58 14.3 83 83 N 5 7 29.97 1015 10 16 N/A
8:15 am 08:15 Sunny 64 17.9 58 14.3 80 80 NNE 5 7 29.97 1015 10 16 N/A
8:35 am 08:35 Sunny 65 18.4 58 14.2 77 77 NNE 5 7 29.97 1015 10 16 N/A
8:55 am 08:55 Sunny 67 19.3 58 14.5 74 74 NNE 6 9 29.97 1015 10 16 N/A
9:15 am 09:15 Sunny 68 20.1 58 14.7 71 71 NE 5 7 29.97 1015 10 16 N/A
9:35 am 09:35 Sunny 70 21 58 14.7 67 67 NE 7 11 29.97 1015 10 16 N/A
9:55 am 09:55 Sunny 72 22 60 15.3 66 66 NE 7 11 29.97 1015 10 16 N/A
10:15 am 10:15 Sunny 72 22.1 59 15.1 65 65 NE 8 13 29.97 1015 10 16 N/A
10:35 am 10:35 Partly Cloudy 73 22.9 60 15.8 64 64 NE 6 9 29.97 1015 10 16 N/A
10:55 am 10:55 Sunny 75 23.9 62 16.9 65 65 ENE 7 11 29.97 1015 10 16 N/A
11:15 am 11:15 Partly Cloudy 76 24.2 64 17.8 68 68 ENE 13 20 29.97 1015 10 16 N/A
11:35 am 11:35 Partly Cloudy 76 24.3 64 17.7 67 67 ENE 13 20 29.97 1015 10 16 N/A
11:55 am 11:55 Mostly Cloudy 75 23.8 64 17.8 69 69 E 8 13 29.97 1015 10 16 N/A
12:15 pm 12:15 Mostly Cloudy 77 24.9 65 18.6 68 68 ENE 10 17 29.97 1015 10 16 N/A
12:35 pm 12:35 Partly Cloudy 78 25.7 65 18.2 63 63 ENE 12 19 29.97 1015 10 16 N/A
12:55 pm 12:55 Sunny 79 25.9 66 18.7 65 65 E 10 17 29.97 1015 10 16 N/A
1:15 pm 13:15 Partly Cloudy 78 25.8 65 18.4 64 64 ENE 12 19 29.97 1015 10 16 N/A
1:35 pm 13:35 Partly Cloudy 78 25.7 65 18.1 63 63 NE 9 15 29.97 1015 10 16 N/A
1:55 pm 13:55 Cloudy 78 25.4 64 18 64 64 NE 10 17 29.94 1014 10 16 N/A
2:15 pm 14:15 Partly Cloudy 80 26.6 65 18.5 61 61 ENE 8 13 29.94 1014 10 16 N/A
2:35 pm 14:35 Partly Cloudy 80 26.9 65 18.4 60 60 ENE 10 17 29.94 1014 10 16 N/A
2:55 pm 14:55 Sunny 81 27.1 65 18.4 59 59 NNE 8 13 29.94 1014 10 16 N/A
3:15 pm 15:15 Partly Cloudy 82 27.7 66 18.8 58 58 ENE 8 13 29.91 1013 10 16 N/A
3:35 pm 15:35 Partly Cloudy 80 26.6 65 18.2 60 60 NE 9 15 29.91 1013 10 16 N/A
3:55 pm 15:55 Mostly Cloudy 81 27.1 65 18.1 58 58 NE 13 20 29.91 1013 10 16 N/A
4:15 pm 16:15 Mostly Cloudy 79 26.1 64 17.9 61 61 ENE 14 22 29.91 1013 10 16 N/A
4:35 pm 16:35 Mostly Cloudy 80 26.5 64 18 60 60 ENE 10 17 29.91 1013 10 16 N/A
4:55 pm 16:55 Mostly Cloudy 79 26 65 18.3 63 63 E 8 13 29.91 1013 10 16 N/A
5:15 pm 17:15 Mostly Cloudy with Light Rain 78 25.6 65 18.3 64 64 E 7 11 29.91 1013 10 16 N/A
5:35 pm 17:35 Cloudy 76 24.4 63 17.3 65 65 E 20 31 29.91 1013 10 16 N/A
5:55 pm 17:55 Cloudy with Heavy Rain 68 20.2 66 18.7 91 91 E 13 20 29.94 1014 2 2 0.17 4.32
6:15 pm 18:15 Cloudy with Rain 69 20.4 67 19.3 93 93 ENE 6 9 29.94 1014 4 6 0.03 0.76
6:35 pm 18:35 Cloudy with Light Rain 69 20.3 67 19.4 95 95 N 6 9 29.94 1014 5 8 0.05 1.27
6:55 pm 18:55 Cloudy with Light Rain 69 20.3 67 19.2 93 93 NNE 5 7 29.94 1014 7 11 0.06 1.52
7:15 pm 19:15 Cloudy with Light Rain 69 20.5 67 19.5 94 94 NE 5 7 29.94 1014 7 11 N/A
7:35 pm 19:35 Cloudy with Light Rain 69 20.3 67 19.3 94 94 N 6 9 29.94 1014 7 11 N/A
7:55 pm 19:55 Cloudy with Light Rain 68 20.2 67 19.3 95 95 N 3 6 29.94 1014 7 11 N/A
8:15 pm 20:15 Cloudy with Light Rain 68 20.2 67 19.3 95 95 N N/A 29.94 1014 7 11 N/A
8:35 pm 20:35 Cloudy with Drizzle 68 20.1 67 19.2 95 95 N 5 7 29.94 1014 10 16 N/A
8:55 pm 20:55 Cloudy with Light Rain 68 20 67 19.2 95 95 N N/A 29.94 1014 7 11 N/A
9:15 pm 21:15 Mostly Cloudy 68 19.9 66 19.1 95 95 N 3 6 29.94 1014 7 11 N/A
9:35 pm 21:35 Cloudy 68 19.8 66 19.1 96 96 N 3 6 29.97 1015 7 11 N/A
9:55 pm 21:55 Cloudy with Mist and Fog 68 19.8 67 19.2 96 96 N 3 6 29.97 1015 7 11 N/A
10:15 pm 22:15 Cloudy with Mist and Fog 68 19.8 67 19.2 96 96 N 5 7 29.97 1015 5 8 N/A
10:35 pm 22:35 Cloudy 68 20.1 67 19.2 95 95 NE 5 7 29.97 1015 7 11 N/A
10:55 pm 22:55 Cloudy with Light Rain 69 20.3 66 19.1 93 93 NNE 6 9 29.97 1015 7 11 N/A
11:15 pm 23:15 Mostly Cloudy 69 20.3 66 19.1 93 93 NNE 5 7 29.97 1015 10 16 N/A
11:35 pm 23:35 Mostly Cloudy 69 20.3 66 19.1 93 93 NNE 8 13 29.97 1015 10 16 N/A
11:55 pm 23:55 Mostly Cloudy 69 20.4 65 18.6 89 89 NNE 8 13 29.97 1015 10 16 N/A

Powered by AerisWeather